| time (UTC) | temp C | wind direction | speed KPH | gust KPH | rain 1hr cm | rain 24hr cm | rain mn cm | humidity % | barometer mb |
| 20260504185509 | 19 | 247 | 35.4 | 0.0 | 0.00 | 0.00 | 0.00 | 53 | 1005.3 |
| 20260504185009 | 19 | 255 | 33.8 | 0.0 | 0.00 | 0.00 | 0.00 | 55 | 1005.4 |
| 20260504184513 | 19 | 252 | 32.2 | 0.0 | 0.00 | 0.00 | 0.00 | 57 | 1005.4 |
| 20260504184008 | 19 | 250 | 29.0 | 0.0 | 0.00 | 0.00 | 0.00 | 57 | 1005.4 |
| 20260504183507 | 18 | 244 | 25.7 | 0.0 | 0.00 | 0.00 | 0.00 | 54 | 1005.4 |
| 20260504183005 | 18 | 248 | 24.1 | 0.0 | 0.00 | 0.00 | 0.00 | 57 | 1005.4 |
| 20260504182504 | 18 | 251 | 22.5 | 0.0 | 0.00 | 0.00 | 0.00 | 53 | 1005.5 |
| 20260504182004 | 17 | 261 | 25.7 | 0.0 | 0.00 | 0.00 | 0.00 | 57 | 1005.5 |
| 20260504181504 | 17 | 246 | 29.0 | 0.0 | 0.00 | 0.00 | 0.00 | 55 | 1005.6 |
| 20260504181004 | 17 | 234 | 25.7 | 0.0 | 0.00 | 0.00 | 0.00 | 53 | 1005.6 |
| 20260504180504 | 17 | 250 | 20.9 | 0.0 | 0.00 | 0.00 | 0.00 | 56 | 1005.6 |
| 20260504180004 | 17 | 244 | 20.9 | 0.0 | 0.00 | 0.00 | 0.00 | 55 | 1005.6 |
| 20260504175502 | 18 | 238 | 22.5 | 0.0 | 0.00 | 0.00 | 0.00 | 54 | 1005.6 |
| 20260504175001 | 18 | 263 | 20.9 | 0.0 | 0.00 | 0.00 | 0.00 | 53 | 1005.6 |
| 20260504174501 | 18 | 196 | 22.5 | 0.0 | 0.00 | 0.00 | 0.00 | 51 | 1005.6 |
| 20260504174002 | 18 | 215 | 24.1 | 0.0 | 0.00 | 0.00 | 0.00 | 53 | 1005.7 |
| 20260504173604 | 18 | 252 | 22.5 | 0.0 | 0.00 | 0.00 | 0.00 | 57 | 1005.7 |
| 20260504173101 | 18 | 252 | 20.9 | 0.0 | 0.00 | 0.00 | 0.00 | 55 | 1005.8 |
| 20260504172558 | 18 | 255 | 24.1 | 0.0 | 0.00 | 0.00 | 0.00 | 58 | 1005.9 |
| 20260504172057 | 18 | 258 | 29.0 | 0.0 | 0.00 | 0.00 | 0.00 | 56 | 1006.0 |
| 20260504171557 | 18 | 246 | 32.2 | 0.0 | 0.00 | 0.00 | 0.00 | 56 | 1006.0 |
| 20260504171056 | 17 | 224 | 30.6 | 0.0 | 0.00 | 0.00 | 0.00 | 56 | 1006.1 |
| 20260504170555 | 17 | 246 | 29.0 | 0.0 | 0.00 | 0.00 | 0.00 | 57 | 1006.1 |
| 20260504151032 | 13 | 227 | 25.7 | 0.0 | 0.00 | 0.00 | 0.00 | 61 | 1007.4 |
| 20260504150535 | 13 | 223 | 22.5 | 0.0 | 0.00 | 0.00 | 0.00 | 58 | 1007.5 |
| 20260504141025 | 13 | 243 | 12.9 | 0.0 | 0.00 | 0.00 | 0.00 | 62 | 1007.6 |
| 20260504140524 | 12 | 238 | 14.5 | 0.0 | 0.00 | 0.00 | 0.00 | 60 | 1007.7 |
| 20260504130511 | 10 | 0.0 | 0.0 | 0.00 | 0.00 | 0.00 | 61 | 1007.9 | |
| 20260504110525 | 4 | 138 | 8.0 | 0.0 | 0.00 | 0.00 | 0.00 | 86 | 1008.3 |
| 20260504100519 | 3 | 140 | 8.0 | 0.0 | 0.00 | 0.00 | 0.00 | 86 | 1008.1 |
| 20260504081553 | 6 | 146 | 8.0 | 0.0 | 0.00 | 0.00 | 0.00 | 82 | 1008.2 |
| 20260504081055 | 6 | 144 | 6.4 | 0.0 | 0.00 | 0.00 | 0.00 | 82 | 1008.4 |
| 20260504080552 | 6 | 145 | 4.8 | 0.0 | 0.00 | 0.00 | 0.00 | 81 | 1008.3 |
| 20260504050539 | 7 | 227 | 8.0 | 0.0 | 0.00 | 0.00 | 0.00 | 77 | 1008.6 |
| 20260504045537 | 7 | 225 | 6.4 | 0.0 | 0.00 | 0.00 | 0.00 | 77 | 1008.9 |
| 20260504045036 | 7 | 227 | 8.0 | 0.0 | 0.00 | 0.00 | 0.00 | 77 | 1009.0 |
| 20260504044535 | 7 | 242 | 9.7 | 0.0 | 0.00 | 0.00 | 0.00 | 77 | 1009.0 |
| 20260504044035 | 7 | 229 | 11.3 | 0.0 | 0.00 | 0.00 | 0.00 | 76 | 1009.0 |
| 20260504043535 | 7 | 238 | 14.5 | 0.0 | 0.00 | 0.00 | 0.00 | 78 | 1009.0 |
| 20260504043040 | 7 | 233 | 12.9 | 0.0 | 0.00 | 0.00 | 0.00 | 77 | 1009.0 |
| 20260504042532 | 8 | 249 | 14.5 | 0.0 | 0.00 | 0.00 | 0.00 | 77 | 1009.0 |
| 20260504042032 | 8 | 223 | 17.7 | 0.0 | 0.00 | 0.00 | 0.00 | 78 | 1008.9 |
| 20260504041532 | 8 | 248 | 20.9 | 0.0 | 0.00 | 0.00 | 0.00 | 78 | 1009.1 |
| 20260504041030 | 8 | 247 | 24.1 | 0.0 | 0.00 | 0.00 | 0.00 | 78 | 1009.2 |
| 20260504040529 | 8 | 257 | 27.4 | 0.0 | 0.00 | 0.00 | 0.00 | 78 | 1009.3 |
| 20260504040028 | 8 | 258 | 29.0 | 0.0 | 0.00 | 0.00 | 0.00 | 78 | 1009.3 |
| 20260504035529 | 8 | 252 | 29.0 | 0.0 | 0.00 | 0.00 | 0.00 | 77 | 1009.4 |
| 20260504035028 | 8 | 252 | 29.0 | 0.0 | 0.00 | 0.00 | 0.00 | 76 | 1009.4 |
| 20260504034528 | 8 | 251 | 27.4 | 0.0 | 0.00 | 0.00 | 0.00 | 76 | 1009.4 |
| 20260504034027 | 8 | 267 | 24.1 | 0.0 | 0.00 | 0.00 | 0.00 | 76 | 1009.5 |
| 20260504033527 | 8 | 270 | 24.1 | 0.0 | 0.00 | 0.00 | 0.00 | 73 | 1009.4 |
| 20260504033027 | 8 | 281 | 24.1 | 0.0 | 0.00 | 0.00 | 0.00 | 73 | 1009.4 |
| 20260504032527 | 8 | 289 | 20.9 | 0.0 | 0.00 | 0.00 | 0.00 | 73 | 1009.5 |
| 20260504032027 | 8 | 278 | 17.7 | 0.0 | 0.00 | 0.00 | 0.00 | 72 | 1009.4 |
| 20260504031528 | 8 | 290 | 16.1 | 0.0 | 0.00 | 0.00 | 0.00 | 72 | 1009.4 |
| 20260504031026 | 8 | 282 | 14.5 | 0.0 | 0.00 | 0.00 | 0.00 | 71 | 1009.2 |
| 20260504030526 | 8 | 282 | 12.9 | 0.0 | 0.00 | 0.00 | 0.00 | 70 | 1009.1 |
| 20260504030027 | 8 | 298 | 9.7 | 0.0 | 0.00 | 0.00 | 0.00 | 68 | 1009.2 |
| 20260504025526 | 8 | 311 | 8.0 | 0.0 | 0.00 | 0.00 | 0.00 | 68 | 1009.1 |
| 20260504025027 | 8 | 355 | 9.7 | 0.0 | 0.00 | 0.00 | 0.00 | 71 | 1009.2 |
| 20260504024525 | 8 | 9 | 9.7 | 0.0 | 0.00 | 0.00 | 0.00 | 67 | 1009.2 |
| 20260504024024 | 8 | 346 | 9.7 | 0.0 | 0.00 | 0.00 | 0.00 | 67 | 1009.2 |
| 20260504023526 | 8 | 12 | 9.7 | 0.0 | 0.00 | 0.00 | 0.00 | 70 | 1009.1 |
| 20260504023025 | 8 | 360 | 11.3 | 0.0 | 0.00 | 0.00 | 0.00 | 68 | 1009.2 |
| 20260504022525 | 8 | 355 | 12.9 | 0.0 | 0.00 | 0.00 | 0.00 | 68 | 1009.1 |
| 20260504022025 | 8 | 325 | 12.9 | 0.0 | 0.00 | 0.00 | 0.00 | 67 | 1009.1 |
| 20260504021524 | 8 | 337 | 12.9 | 0.0 | 0.00 | 0.00 | 0.00 | 68 | 1009.2 |
| 20260504021024 | 8 | 355 | 14.5 | 0.0 | 0.00 | 0.00 | 0.00 | 65 | 1009.2 |
| 20260504020525 | 8 | 326 | 16.1 | 0.0 | 0.00 | 0.00 | 0.00 | 67 | 1009.2 |
| 20260504020024 | 8 | 325 | 16.1 | 0.0 | 0.00 | 0.00 | 0.00 | 67 | 1009.3 |
| 20260504015524 | 8 | 322 | 16.1 | 0.0 | 0.00 | 0.00 | 0.00 | 66 | 1009.3 |
| 20260504015024 | 8 | 333 | 19.3 | 0.0 | 0.00 | 0.00 | 0.00 | 67 | 1009.3 |
| 20260504014533 | 8 | 303 | 24.1 | 0.0 | 0.00 | 0.00 | 0.00 | 66 | 1009.3 |
| 20260504014023 | 8 | 302 | 22.5 | 0.0 | 0.00 | 0.00 | 0.00 | 67 | 1009.3 |
| 20260504013522 | 8 | 299 | 16.1 | 0.0 | 0.00 | 0.00 | 0.00 | 64 | 1009.4 |
| 20260504013034 | 8 | 309 | 14.5 | 0.0 | 0.00 | 0.00 | 0.00 | 63 | 1009.3 |
| 20260504012522 | 8 | 321 | 14.5 | 0.0 | 0.00 | 0.00 | 0.00 | 63 | 1009.3 |
| 20260504012022 | 8 | 311 | 17.7 | 0.0 | 0.00 | 0.00 | 0.00 | 60 | 1009.3 |
| 20260504011522 | 9 | 294 | 20.9 | 0.0 | 0.00 | 0.00 | 0.00 | 63 | 1009.3 |
| 20260504011021 | 8 | 295 | 25.7 | 0.0 | 0.00 | 0.00 | 0.00 | 61 | 1009.3 |
| 20260504010521 | 8 | 286 | 22.5 | 0.0 | 0.00 | 0.00 | 0.00 | 63 | 1009.1 |
| 20260504010021 | 8 | 296 | 16.1 | 0.0 | 0.00 | 0.00 | 0.00 | 63 | 1009.1 |
| 20260504005521 | 8 | 286 | 17.7 | 0.0 | 0.00 | 0.00 | 0.00 | 61 | 1009.0 |
| 20260504005021 | 8 | 289 | 16.1 | 0.0 | 0.00 | 0.00 | 0.00 | 61 | 1009.0 |
| 20260504004522 | 8 | 284 | 16.1 | 0.0 | 0.00 | 0.00 | 0.00 | 60 | 1008.9 |
| 20260504004021 | 8 | 287 | 17.7 | 0.0 | 0.00 | 0.00 | 0.00 | 58 | 1008.8 |
| 20260504003522 | 9 | 286 | 19.3 | 0.0 | 0.00 | 0.00 | 0.00 | 54 | 1008.8 |
| 20260504003020 | 9 | 308 | 20.9 | 0.0 | 0.00 | 0.00 | 0.00 | 55 | 1008.8 |
| 20260504002521 | 9 | 294 | 24.1 | 0.0 | 0.00 | 0.00 | 0.00 | 59 | 1008.7 |
| 20260504002020 | 9 | 286 | 27.4 | 0.0 | 0.00 | 0.00 | 0.00 | 56 | 1008.7 |
| 20260504001521 | 9 | 292 | 29.0 | 0.0 | 0.00 | 0.00 | 0.00 | 58 | 1008.7 |
| 20260504001020 | 9 | 287 | 30.6 | 0.0 | 0.00 | 0.00 | 0.00 | 57 | 1008.6 |
| 20260504000519 | 9 | 288 | 30.6 | 0.0 | 0.00 | 0.00 | 0.00 | 58 | 1008.5 |
| 20260504000020 | 10 | 281 | 29.0 | 0.0 | 0.00 | 0.00 | 0.00 | 54 | 1008.5 |
| 20260503235521 | 10 | 291 | 27.4 | 0.0 | 0.00 | 0.00 | 0.00 | 53 | 1008.5 |
| 20260503235019 | 10 | 298 | 30.6 | 0.0 | 0.00 | 0.00 | 0.00 | 53 | 1008.5 |
| 20260503234521 | 10 | 288 | 33.8 | 0.0 | 0.00 | 0.00 | 0.00 | 53 | 1008.4 |
| 20260503234022 | 10 | 360 | 32.2 | 0.0 | 0.00 | 0.00 | 0.00 | 52 | 1008.3 |
| 20260503233519 | 10 | 300 | 30.6 | 0.0 | 0.00 | 0.00 | 0.00 | 52 | 1008.4 |
| 20260503233021 | 10 | 296 | 32.2 | 0.0 | 0.00 | 0.00 | 0.00 | 53 | 1008.2 |
| 20260503232519 | 10 | 301 | 35.4 | 0.0 | 0.00 | 0.00 | 0.00 | 50 | 1008.1 |
| 20260503232021 | 10 | 288 | 37.0 | 0.0 | 0.00 | 0.00 | 0.00 | 52 | 1008.0 |
| 20260503231520 | 10 | 295 | 38.6 | 0.0 | 0.00 | 0.00 | 0.00 | 53 | 1007.9 |
| 20260503231019 | 10 | 360 | 40.2 | 0.0 | 0.00 | 0.00 | 0.00 | 53 | 1007.8 |
| 20260503230520 | 10 | 360 | 38.6 | 0.0 | 0.00 | 0.00 | 0.00 | 51 | 1007.7 |
| 20260503230017 | 10 | 280 | 32.2 | 0.0 | 0.00 | 0.00 | 0.00 | 52 | 1007.6 |
| 20260503225517 | 10 | 296 | 27.4 | 0.0 | 0.00 | 0.00 | 0.00 | 50 | 1007.6 |
| 20260503225018 | 10 | 319 | 25.7 | 0.0 | 0.00 | 0.00 | 0.00 | 52 | 1007.5 |
| 20260503224517 | 10 | 283 | 29.0 | 0.0 | 0.00 | 0.00 | 0.00 | 52 | 1007.5 |
| 20260503224019 | 10 | 269 | 29.0 | 0.0 | 0.00 | 0.00 | 0.00 | 51 | 1007.5 |
| 20260503223516 | 10 | 295 | 30.6 | 0.0 | 0.00 | 0.00 | 0.00 | 49 | 1007.5 |
| 20260503223016 | 10 | 298 | 32.2 | 0.0 | 0.00 | 0.00 | 0.00 | 48 | 1007.4 |
| 20260503222515 | 10 | 298 | 32.2 | 0.0 | 0.00 | 0.00 | 0.00 | 53 | 1007.5 |
| 20260503222118 | 10 | 311 | 32.2 | 0.0 | 0.00 | 0.00 | 0.00 | 50 | 1007.4 |
| 20260503221516 | 10 | 318 | 35.4 | 0.0 | 0.00 | 0.00 | 0.00 | 48 | 1007.5 |
| 20260503221018 | 10 | 325 | 37.0 | 0.0 | 0.00 | 0.00 | 0.00 | 48 | 1007.5 |
| 20260503220518 | 11 | 315 | 38.6 | 0.0 | 0.00 | 0.00 | 0.00 | 49 | 1007.5 |
| 20260503220015 | 11 | 302 | 41.8 | 0.0 | 0.00 | 0.00 | 0.00 | 49 | 1007.5 |
| 20260503215515 | 11 | 307 | 41.8 | 0.0 | 0.00 | 0.00 | 0.00 | 48 | 1007.6 |
| 20260503215016 | 11 | 311 | 41.8 | 0.0 | 0.00 | 0.00 | 0.00 | 47 | 1007.5 |
| 20260503214517 | 11 | 308 | 37.0 | 0.0 | 0.00 | 0.00 | 0.00 | 44 | 1007.3 |
| 20260503214013 | 11 | 305 | 33.8 | 0.0 | 0.00 | 0.00 | 0.00 | 47 | 1007.3 |
| 20260503213513 | 11 | 296 | 35.4 | 0.0 | 0.00 | 0.00 | 0.00 | 47 | 1007.2 |
| 20260503213013 | 11 | 298 | 41.8 | 0.0 | 0.00 | 0.00 | 0.00 | 44 | 1007.1 |
| 20260503212513 | 11 | 281 | 43.5 | 0.0 | 0.00 | 0.00 | 0.00 | 47 | 1007.1 |
| 20260503212013 | 11 | 281 | 45.1 | 0.0 | 0.00 | 0.00 | 0.00 | 47 | 1007.0 |
| 20260503211513 | 11 | 276 | 45.1 | 0.0 | 0.00 | 0.00 | 0.00 | 45 | 1007.1 |
| 20260503211012 | 11 | 360 | 40.2 | 0.0 | 0.00 | 0.00 | 0.00 | 49 | 1006.9 |
| 20260503210512 | 11 | 277 | 35.4 | 0.0 | 0.00 | 0.00 | 0.00 | 46 | 1006.9 |
| 20260503210011 | 11 | 282 | 33.8 | 0.0 | 0.00 | 0.00 | 0.00 | 46 | 1007.0 |
| 20260503205511 | 11 | 285 | 30.6 | 0.0 | 0.00 | 0.00 | 0.00 | 45 | 1007.0 |
| 20260503205011 | 11 | 291 | 30.6 | 0.0 | 0.00 | 0.00 | 0.00 | 50 | 1007.2 |
| 20260503204509 | 11 | 270 | 29.0 | 0.0 | 0.00 | 0.00 | 0.00 | 49 | 1007.2 |
| 20260503204008 | 11 | 283 | 25.7 | 0.0 | 0.00 | 0.00 | 0.00 | 50 | 1007.3 |
| 20260503203511 | 11 | 296 | 30.6 | 0.0 | 0.00 | 0.00 | 0.00 | 48 | 1007.4 |
| 20260503203022 | 11 | 300 | 32.2 | 0.0 | 0.00 | 0.00 | 0.00 | 44 | 1007.3 |
| 20260503202508 | 11 | 300 | 27.4 | 0.0 | 0.00 | 0.00 | 0.00 | 50 | 1007.3 |
| 20260503202006 | 11 | 286 | 25.7 | 0.0 | 0.00 | 0.00 | 0.00 | 48 | 1007.3 |
| 20260503201506 | 11 | 293 | 24.1 | 0.0 | 0.00 | 0.00 | 0.00 | 46 | 1007.3 |
| 20260503201009 | 11 | 288 | 20.9 | 0.0 | 0.00 | 0.00 | 0.00 | 49 | 1007.3 |
| 20260503200504 | 10 | 285 | 17.7 | 0.0 | 0.00 | 0.00 | 0.00 | 45 | 1007.4 |
| 20260503200004 | 10 | 295 | 16.1 | 0.0 | 0.00 | 0.00 | 0.00 | 43 | 1007.5 |
| 20260503195503 | 10 | 305 | 17.7 | 0.0 | 0.00 | 0.00 | 0.00 | 44 | 1007.5 |
| 20260503195002 | 10 | 304 | 22.5 | 0.0 | 0.00 | 0.00 | 0.00 | 47 | 1007.5 |
| 20260503194501 | 10 | 290 | 29.0 | 0.0 | 0.00 | 0.00 | 0.00 | 49 | 1007.7 |
| 20260503194101 | 11 | 279 | 27.4 | 0.0 | 0.00 | 0.00 | 0.00 | 51 | 1007.8 |
| 20260503193559 | 10 | 279 | 25.7 | 0.0 | 0.00 | 0.00 | 0.00 | 54 | 1007.9 |
| 20260503193058 | 10 | 285 | 25.7 | 0.0 | 0.00 | 0.00 | 0.00 | 51 | 1008.1 |
| 20260503192556 | 10 | 300 | 27.4 | 0.0 | 0.00 | 0.00 | 0.00 | 54 | 1008.1 |
| 20260503192056 | 10 | 306 | 30.6 | 0.0 | 0.00 | 0.00 | 0.00 | 50 | 1008.3 |
| 20260503191557 | 10 | 287 | 25.7 | 0.0 | 0.00 | 0.00 | 0.00 | 52 | 1008.2 |
| 20260503191055 | 10 | 259 | 25.7 | 0.0 | 0.00 | 0.00 | 0.00 | 56 | 1008.4 |
| 20260503190553 | 10 | 305 | 25.7 | 0.0 | 0.00 | 0.00 | 0.00 | 47 | 1008.6 |
| 20260503190106 | 10 | 297 | 24.1 | 0.0 | 0.00 | 0.00 | 0.00 | 52 | 1008.6 |